• In Romania
  • List of Countries
  • For 7 days
  • Water Temperature
  • Satellite Maps
  • Weather Map
  • Weather Widgets
  • user-avatar
    Login

    Hourly Weather Canberra

    Today, 17 July, Tuesday

    Time Temperature Precipitation Wind Pressure Humidity
    00:00 +2°C° 0 mm 2 mps 706 mmHg 75%
    01:00 +2°C° 0 mm 2 mps 706 mmHg 75%
    02:00 +2°C° 0 mm 2 mps 706 mmHg 75%
    03:00 +2°C° 0 mm 2 mps 706 mmHg 76%
    04:00 +2°C° 0 mm 2 mps 706 mmHg 76%
    05:00 +1°C° 0 mm 2 mps 706 mmHg 76%
    06:00 +1°C° 0 mm 2 mps 706 mmHg 77%
    07:00 +1°C° 0 mm 2 mps 706 mmHg 77%
    08:00 +3°C° 0 mm 3 mps 706 mmHg 66%
    09:00 +5°C° 0 mm 4 mps 707 mmHg 56%
    10:00 +8°C° 0 mm 4 mps 707 mmHg 44%
    11:00 +10°C° 0 mm 5 mps 706 mmHg 40%
    12:00 +11°C° 0 mm 6 mps 706 mmHg 36%
    13:00 +12°C° 0 mm 7 mps 705 mmHg 32%
    14:00 +12°C° 0 mm 7 mps 705 mmHg 36%
    15:00 +12°C° 0 mm 7 mps 704 mmHg 40%
    16:00 +12°C° 0 mm 5 mps 703 mmHg 47%
    17:00 +10°C° 0 mm 5 mps 704 mmHg 49%
    18:00 +9°C° 0 mm 5 mps 704 mmHg 51%
    19:00 +9°C° 0 mm 6 mps 704 mmHg 54%
    20:00 +9°C° 0 mm 6 mps 704 mmHg 55%
    21:00 +9°C° 0 mm 6 mps 704 mmHg 56%
    22:00 +9°C° 0 mm 6 mps 705 mmHg 57%
    23:00 +8°C° 0 mm 6 mps 705 mmHg 60%

    Tomorrow, 18 July, Wednesday

    Time Temperature Precipitation Wind Pressure Humidity
    00:00 +7°C° 0 mm 6 mps 706 mmHg 63%
    01:00 +5°C° 0 mm 6 mps 706 mmHg 66%
    02:00 +5°C° 0 mm 5 mps 707 mmHg 68%
    03:00 +3°C° 0 mm 5 mps 707 mmHg 70%
    04:00 +3°C° 0 mm 4 mps 707 mmHg 72%
    05:00 +1°C° 0 mm 4 mps 708 mmHg 75%
    06:00 +2°C° 0 mm 3 mps 708 mmHg 78%
    07:00 +1°C° 0 mm 3 mps 708 mmHg 80%
    08:00 +3°C° 0 mm 3 mps 709 mmHg 72%
    09:00 +5°C° 0 mm 3 mps 710 mmHg 64%
    10:00 +8°C° 0 mm 3 mps 710 mmHg 56%
    11:00 +8°C° 0 mm 4 mps 710 mmHg 53%
    12:00 +10°C° 0 mm 4 mps 710 mmHg 50%
    13:00 +11°C° 0 mm 4 mps 710 mmHg 47%
    14:00 +10°C° 0 mm 4 mps 709 mmHg 50%
    15:00 +10°C° 0 mm 4 mps 709 mmHg 54%
    16:00 +8°C° 0 mm 4 mps 709 mmHg 57%
    17:00 +7°C° 0 mm 4 mps 709 mmHg 64%
    18:00 +5°C° 0 mm 3 mps 709 mmHg 72%
    19:00 +3°C° 0 mm 3 mps 709 mmHg 79%
    20:00 +3°C° 0 mm 3 mps 709 mmHg 78%
    21:00 +3°C° 0 mm 3 mps 709 mmHg 77%
    22:00 +3°C° 0 mm 3 mps 710 mmHg 76%
    23:00 +3°C° 0 mm 3 mps 709 mmHg 75%

    Day after tomorrow, 19 July, Thursday

    Time Temperature Precipitation Wind Pressure Humidity
    00:00 +3°C° 0 mm 3 mps 709 mmHg 74%
    01:00 +3°C° 0 mm 3 mps 709 mmHg 73%
    02:00 +3°C° 0 mm 3 mps 708 mmHg 73%
    03:00 +2°C° 0 mm 3 mps 708 mmHg 74%
    04:00 +2°C° 0 mm 3 mps 708 mmHg 74%
    05:00 +2°C° 0 mm 3 mps 708 mmHg 74%
    06:00 +2°C° 0 mm 3 mps 707 mmHg 75%
    07:00 +1°C° 0 mm 3 mps 707 mmHg 75%
    08:00 +4°C° 0 mm 4 mps 707 mmHg 67%
    09:00 +7°C° 0 mm 5 mps 707 mmHg 59%
    10:00 +9°C° 0 mm 6 mps 707 mmHg 50%
    11:00 +10°C° 0 mm 6 mps 707 mmHg 48%
    12:00 +11°C° 0 mm 6 mps 706 mmHg 46%
    13:00 +14°C° 0 mm 7 mps 706 mmHg 44%
    14:00 +13°C° 0 mm 6 mps 705 mmHg 47%
    15:00 +13°C° 0 mm 6 mps 705 mmHg 49%
    16:00 +13°C° 0 mm 5 mps 704 mmHg 52%
    17:00 +10°C° 0 mm 5 mps 704 mmHg 56%
    18:00 +10°C° 0 mm 4 mps 704 mmHg 60%
    19:00 +8°C° 0 mm 4 mps 704 mmHg 65%
    20:00 +8°C° 0 mm 4 mps 703 mmHg 63%
    21:00 +7°C° 0 mm 4 mps 703 mmHg 62%
    22:00 +7°C° 0 mm 4 mps 702 mmHg 60%
    23:00 +7°C° 0 mm 4 mps 702 mmHg 58%

    20 July, Friday

    Time Temperature Precipitation Wind Pressure Humidity
    00:00 +7°C° 0 mm 4 mps 701 mmHg 56%
    01:00 +8°C° 0 mm 4 mps 700 mmHg 54%
    02:00 +7°C° 0 mm 5 mps 700 mmHg 55%
    03:00 +7°C° 0 mm 5 mps 700 mmHg 57%
    04:00 +7°C° 0 mm 5 mps 700 mmHg 58%
    05:00 +6°C° 0.8 mm 5 mps 700 mmHg 68%
    06:00 +5°C° 0.8 mm 5 mps 701 mmHg 78%
    07:00 +2°C° 0.8 mm 5 mps 702 mmHg 88%
    08:00 +3°C° 0.1 mm 6 mps 702 mmHg 84%
    09:00 +3°C° 0.1 mm 6 mps 703 mmHg 80%
    10:00 +3°C° 0.1 mm 6 mps 704 mmHg 75%
    11:00 +4°C° 0.1 mm 6 mps 704 mmHg 70%
    12:00 +4°C° 0.1 mm 7 mps 704 mmHg 65%
    13:00 +4°C° 0.1 mm 7 mps 704 mmHg 60%
    14:00 +4°C° 0 mm 7 mps 704 mmHg 61%
    15:00 +4°C° 0 mm 7 mps 705 mmHg 61%
    16:00 +4°C° 0 mm 7 mps 705 mmHg 62%
    17:00 +3°C° 0 mm 6 mps 706 mmHg 66%
    18:00 +2°C° 0 mm 5 mps 706 mmHg 70%
    19:00 +2°C° 0 mm 5 mps 707 mmHg 74%
    20:00 +3°C° 0 mm 4 mps 707 mmHg 75%
    21:00 +3°C° 0 mm 4 mps 708 mmHg 76%
    22:00 +3°C° 0 mm 4 mps 708 mmHg 77%
    23:00 +3°C° 0 mm 4 mps 709 mmHg 78%

    21 July, Saturday

    Time Temperature Precipitation Wind Pressure Humidity
    00:00 +1°C° 0 mm 4 mps 709 mmHg 80%
    01:00 +1°C° 0 mm 4 mps 709 mmHg 81%
    02:00 +1°C° 0 mm 4 mps 709 mmHg 83%
    03:00 +1°C° 0 mm 3 mps 710 mmHg 84%
    04:00 +1°C° 0 mm 3 mps 710 mmHg 86%
    05:00 +1°C° 0 mm 3 mps 710 mmHg 87%
    06:00 0°C° 0 mm 3 mps 711 mmHg 89%
    07:00 +1°C° 0 mm 2 mps 711 mmHg 90%
    08:00 +2°C° 0 mm 3 mps 712 mmHg 82%
    09:00 +4°C° 0 mm 3 mps 712 mmHg 73%
    10:00 +7°C° 0 mm 3 mps 713 mmHg 65%
    11:00 +7°C° 0 mm 3 mps 712 mmHg 62%
    12:00 +7°C° 0 mm 4 mps 712 mmHg 59%
    13:00 +8°C° 0 mm 4 mps 711 mmHg 56%
    14:00 +7°C° 0 mm 4 mps 711 mmHg 58%
    15:00 +7°C° 0 mm 4 mps 711 mmHg 61%
    16:00 +6°C° 0 mm 4 mps 711 mmHg 63%
    17:00 +5°C° 0 mm 3 mps 711 mmHg 70%
    18:00 +3°C° 0 mm 3 mps 711 mmHg 77%
    19:00 +3°C° 0 mm 2 mps 712 mmHg 83%
    20:00 +3°C° 0 mm 2 mps 712 mmHg 85%
    21:00 +2°C° 0 mm 2 mps 712 mmHg 88%
    22:00 +2°C° 0 mm 2 mps 712 mmHg 90%
    23:00 +2°C° 0 mm 2 mps 712 mmHg 90%

    22 July, Sunday

    Time Temperature Precipitation Wind Pressure Humidity
    00:00 +2°C° 0 mm 2 mps 712 mmHg 91%
    01:00 +1°C° 0 mm 2 mps 712 mmHg 91%
    02:00 +1°C° 0 mm 2 mps 712 mmHg 92%
    03:00 +1°C° 0 mm 2 mps 712 mmHg 93%
    04:00 +1°C° 0 mm 2 mps 711 mmHg 93%
    05:00 +1°C° 0 mm 1 mps 712 mmHg 93%
    06:00 +1°C° 0 mm 1 mps 712 mmHg 93%
    07:00 +1°C° 0 mm 1 mps 712 mmHg 93%
    08:00 +3°C° 0 mm 2 mps 712 mmHg 82%
    09:00 +5°C° 0 mm 2 mps 713 mmHg 71%
    10:00 +8°C° 0 mm 2 mps 713 mmHg 59%
    11:00 +9°C° 0 mm 3 mps 712 mmHg 57%
    12:00 +10°C° 0 mm 3 mps 712 mmHg 54%
    13:00 +12°C° 0 mm 3 mps 711 mmHg 51%
    14:00 +11°C° 0 mm 3 mps 711 mmHg 54%
    15:00 +10°C° 0 mm 3 mps 711 mmHg 56%
    16:00 +10°C° 0 mm 3 mps 710 mmHg 59%
    17:00 +8°C° 0 mm 3 mps 711 mmHg 68%
    18:00 +6°C° 0 mm 2 mps 711 mmHg 77%
    19:00 +4°C° 0 mm 2 mps 711 mmHg 85%
    20:00 +3°C° 0 mm 2 mps 711 mmHg 86%
    21:00 +3°C° 0 mm 2 mps 711 mmHg 86%
    22:00 +3°C° 0 mm 2 mps 711 mmHg 86%
    23:00 +3°C° 0 mm 2 mps 711 mmHg 85%
    Show more